Weather History for K5C1

Nearest airport to NA, NA.

See history from more local stations
Change the Weather History Date:

Tuesday, March 26, 2013

  Actual Average (KSAT) Record (KSAT)
Temperature  
Mean Temperature 45 °F 64 °F  
Max Temperature 62 °F 76 °F 97 °F (1950)
Min Temperature 28 °F 53 °F 31 °F (1955)
Degree Days  
Heating Degree Days 20 3  
Month to date heating degree days 138  
Since 1 July heating degree days 1439  
Cooling Degree Days 0 3  
Month to date cooling degree days 51  
Year to date cooling degree days 77  
Moisture  
Dew Point 19 °F    
Average Humidity 41    
Maximum Humidity 74    
Minimum Humidity 15    
Precipitation  
Precipitation 0.00 in 0.08 in 1.47 in (1900)
Month to date precipitation 1.98  
Year to date precipitation 5.53  
Snow  
Snow 0.00 in - - ()
Month to date snowfall  
Since 1 July snowfall  
Snow Depth -    
Sea Level Pressure  
Sea Level Pressure 30.38 in    
Wind  
Wind Speed 2 mph (SSE)    
Max Wind Speed 9 mph    
Max Gust Speed -    
Visibility 10 miles    
Events      
T = Trace of Precipitation, MM = Missing Value Source: NWS Daily Summary

Daily Weather History Graph

Daily Weather History Graph

Search for Another Location

Airport or City:

Trip Planner

Search our weather history database for the weather conditions in past years. The results will help you decide how hot, cold, wet, or windy it might be!

Date:

Astronomy

Mar. 26, 2013 Rise Set
Actual Time 7:31 AM CDT 7:49 PM CDT
Civil Twilight 7:07 AM CDT 8:13 PM CDT
Nautical Twilight 6:39 AM CDT 8:41 PM CDT
Astronomical Twilight 6:11 AM CDT 9:10 PM CDT
Moon 7:27 PM CDT (3/26) 6:47 AM CDT (3/26)
Length of Visible Light 13h 06m
Length of Day
12h 18m
Waxing Gibbous, 99% of the Moon is Illuminated
Mar 26
Waxing Gibbous
Mar 27
Full
Apr 2
Last Quarter
Apr 10
New
Apr 18
First Quarter

Hourly Weather History & Observations

Time (CDT) Temp. Windchill Dew Point Humidity Pressure Visibility Wind Dir Wind Speed Gust Speed Precip Events Conditions
12:15 AM 33.8 °F - 21.2 °F 60% 30.39 in 10.0 mi Calm Calm - N/A   Clear
12:35 AM 33.8 °F - 21.2 °F 60% 30.39 in 10.0 mi Calm Calm - N/A   Clear
12:55 AM 32.0 °F - 21.2 °F 64% 30.39 in 10.0 mi Calm Calm - N/A   Clear
1:15 AM 32.0 °F - 19.4 °F 60% 30.39 in 10.0 mi Calm Calm - N/A   Clear
1:35 AM 32.0 °F - 19.4 °F 60% 30.40 in 10.0 mi Calm Calm - N/A   Clear
1:55 AM 32.0 °F - 19.4 °F 60% 30.40 in 10.0 mi Calm Calm - N/A   Clear
2:15 AM 32.0 °F - 19.4 °F 60% 30.40 in 10.0 mi Calm Calm - N/A   Clear
2:35 AM 32.0 °F - 19.4 °F 60% 30.40 in 10.0 mi Calm Calm - N/A   Clear
2:55 AM 32.0 °F - 21.2 °F 64% 30.40 in 10.0 mi Calm Calm - N/A   Clear
3:15 AM 32.0 °F - 21.2 °F 64% 30.39 in 10.0 mi Calm Calm - N/A   Clear
3:35 AM 32.0 °F 28.7 °F 21.2 °F 64% 30.39 in 10.0 mi NNW 3.5 mph - N/A   Clear
3:55 AM 32.0 °F - 21.2 °F 64% 30.39 in 10.0 mi Calm Calm - N/A   Clear
4:15 AM 32.0 °F - 21.2 °F 64% 30.39 in 10.0 mi Calm Calm - N/A   Clear
4:35 AM 32.0 °F - 21.2 °F 64% 30.38 in 10.0 mi Calm Calm - N/A   Clear
4:55 AM 32.0 °F - 21.2 °F 64% 30.39 in 10.0 mi Calm Calm - N/A   Clear
5:15 AM 32.0 °F - 21.2 °F 64% 30.39 in 10.0 mi Calm Calm - N/A   Clear
5:35 AM 30.2 °F - 19.4 °F 64% 30.40 in 10.0 mi Calm Calm - N/A   Clear
5:55 AM 28.4 °F - 21.2 °F 74% 30.40 in 10.0 mi Calm Calm - N/A   Clear
6:15 AM 28.4 °F - 19.4 °F 69% 30.41 in 10.0 mi Calm Calm - N/A   Clear
6:35 AM 28.4 °F - 19.4 °F 69% 30.41 in 10.0 mi Calm Calm - N/A   Clear
6:55 AM 28.4 °F - 21.2 °F 74% 30.42 in 10.0 mi Calm Calm - N/A   Clear
7:15 AM 28.4 °F - 19.4 °F 69% 30.43 in 10.0 mi Calm Calm - N/A   Clear
7:35 AM 28.4 °F - 19.4 °F 69% 30.43 in 10.0 mi Calm Calm - N/A   Clear
7:55 AM 28.4 °F - 21.2 °F 74% 30.44 in 10.0 mi Calm Calm - N/A   Clear
8:15 AM 32.0 °F - 23.0 °F 69% 30.45 in 10.0 mi Calm Calm - N/A   Clear
8:35 AM 33.8 °F - 24.8 °F 70% 30.45 in 10.0 mi Calm Calm - N/A   Clear
8:55 AM 39.2 °F - 23.0 °F 52% 30.47 in 10.0 mi Calm Calm - N/A   Clear
9:15 AM 42.8 °F 41.1 °F 21.2 °F 42% 30.48 in 10.0 mi ENE 3.5 mph - N/A   Clear
9:35 AM 44.6 °F 43.1 °F 19.4 °F 37% 30.48 in 10.0 mi ENE 3.5 mph - N/A   Clear
9:55 AM 46.4 °F 43.5 °F 17.6 °F 32% 30.48 in 10.0 mi East 5.8 mph - N/A   Clear
10:15 AM 50.0 °F - 17.6 °F 28% 30.48 in 10.0 mi SE 4.6 mph - N/A   Clear
10:35 AM 51.8 °F - 17.6 °F 26% 30.48 in 10.0 mi SSE 3.5 mph - N/A   Clear
10:55 AM 51.8 °F - 17.6 °F 26% 30.48 in 10.0 mi SE 8.1 mph - N/A   Clear
11:15 AM 53.6 °F - 15.8 °F 22% 30.48 in 10.0 mi South 8.1 mph - N/A   Clear
11:35 AM 53.6 °F - 15.8 °F 22% 30.47 in 10.0 mi SE 5.8 mph - N/A   Clear
11:55 AM 53.6 °F - 17.6 °F 24% 30.46 in 10.0 mi SSE 6.9 mph - N/A   Clear
12:15 PM 55.4 °F - 17.6 °F 23% 30.45 in 10.0 mi SSE 4.6 mph - N/A   Clear
12:35 PM 55.4 °F - 17.6 °F 23% 30.44 in 10.0 mi SSE 5.8 mph - N/A   Clear
12:55 PM 57.2 °F - 17.6 °F 21% 30.43 in 10.0 mi SE 3.5 mph - N/A   Clear
1:15 PM 59.0 °F - 19.4 °F 22% 30.42 in 10.0 mi SSE 8.1 mph - N/A   Clear
1:55 PM 60.8 °F - 19.4 °F 20% 30.39 in 10.0 mi SSE 6.9 mph - N/A   Clear
2:15 PM 60.8 °F - 15.8 °F 17% 30.38 in 10.0 mi SSW 3.5 mph - N/A   Clear
2:35 PM 62.6 °F - 17.6 °F 18% 30.37 in 10.0 mi SSE 6.9 mph - N/A   Clear
2:55 PM 62.6 °F - 17.6 °F 18% 30.36 in 10.0 mi SSE 9.2 mph - N/A   Clear
3:15 PM 62.6 °F - 15.8 °F 16% 30.35 in 10.0 mi SE 6.9 mph - N/A   Clear
3:55 PM 62.6 °F - 14.0 °F 15% 30.33 in 10.0 mi East 6.9 mph - N/A   Clear
4:15 PM 62.6 °F - 14.0 °F 15% 30.32 in 10.0 mi South 3.5 mph - N/A   Clear
4:35 PM 62.6 °F - 14.0 °F 15% 30.31 in 10.0 mi ESE 9.2 mph - N/A   Clear
4:55 PM 62.6 °F - 14.0 °F 15% 30.30 in 10.0 mi SE 5.8 mph - N/A   Clear
5:15 PM 62.6 °F - 14.0 °F 15% 30.30 in 10.0 mi SSE 5.8 mph - N/A   Clear
5:35 PM 62.6 °F - 14.0 °F 15% 30.29 in 10.0 mi SSE 8.1 mph - N/A   Clear
5:55 PM 62.6 °F - 14.0 °F 15% 30.29 in 10.0 mi ESE 6.9 mph - N/A   Clear
6:15 PM 62.6 °F - 14.0 °F 15% 30.29 in 10.0 mi South 6.9 mph - N/A   Clear
6:35 PM 62.6 °F - 14.0 °F 15% 30.29 in 10.0 mi SSE 9.2 mph - N/A   Clear
6:55 PM 60.8 °F - 14.0 °F 16% 30.29 in 10.0 mi South 6.9 mph - N/A   Clear
7:15 PM 60.8 °F - 14.0 °F 16% 30.29 in 10.0 mi SSE 8.1 mph - N/A   Clear
7:35 PM 59.0 °F - 14.0 °F 17% 30.29 in 10.0 mi South 5.8 mph - N/A   Clear
7:55 PM 55.4 °F - 15.8 °F 21% 30.29 in 10.0 mi SSE 3.5 mph - N/A   Clear
8:15 PM 53.6 °F - 17.6 °F 24% 30.29 in 10.0 mi Calm Calm - N/A   Clear
8:35 PM 50.0 °F - 19.4 °F 30% 30.29 in 10.0 mi Calm Calm - N/A   Clear
8:55 PM 48.2 °F - 19.4 °F 32% 30.29 in 10.0 mi Calm Calm - N/A   Clear
9:15 PM 46.4 °F - 21.2 °F 37% 30.29 in 10.0 mi Calm Calm - N/A   Clear
9:35 PM 44.6 °F - 19.4 °F 37% 30.30 in 10.0 mi Calm Calm - N/A   Clear
9:55 PM 42.8 °F - 19.4 °F 39% 30.30 in 10.0 mi Calm Calm - N/A   Clear
10:15 PM 41.0 °F - 21.2 °F 45% 30.30 in 10.0 mi Calm Calm - N/A   Clear
10:35 PM 41.0 °F - 19.4 °F 42% 30.30 in 10.0 mi Calm Calm - N/A   Clear
10:55 PM 37.4 °F - 21.2 °F 52% 30.31 in 10.0 mi Calm Calm - N/A   Clear
11:15 PM 41.0 °F 39.0 °F 21.2 °F 45% 30.32 in 10.0 mi SE 3.5 mph - N/A   Clear
11:35 PM 44.6 °F 42.2 °F 19.4 °F 37% 30.32 in 10.0 mi SSE 4.6 mph - N/A   Clear
11:55 PM 46.4 °F 44.3 °F 21.2 °F 37% 30.32 in 10.0 mi South 4.6 mph - N/A   Clear